Regional Weather Roundup
Issued by NWS

Home | Current Version | Previous Version | Graphics & Text | Print | Product List | Glossary On
Versions: 1 2 3 4 5 6 7 8 9 10 11 12 13 14 15 16 17 18 19 20 21 22 23 24 25 26 27 28 29 30 31 32 33 34 35 36 37 38 39 40 41 42 43 44 45 46 47 48 49 50
260
ASUS43 KMKX 212159
RWRWI

WISCONSIN REGIONAL WEATHER ROUNDUP
NATIONAL WEATHER SERVICE MILWAUKEE/SULLIVAN WI
500 PM CDT SAT APR 21 2018

NOTE: "FAIR" INDICATES FEW OR NO CLOUDS BELOW 12,000 FEET WITH NO
SIGNIFICANT WEATHER AND/OR OBSTRUCTIONS TO VISIBILITY.

WIZ001-002-006>008-014>016-023>028-212300-
NORTHWEST WISCONSIN

CITY           SKY/WX    TMP DP  RH WIND       PRES   REMARKS
SUPERIOR ARPT  FAIR      60  20  21 NW5       30.33S
ASHLAND        FAIR      58  10  15 W6        30.33F
HAYWARD        FAIR      56  19  23 S7        30.34S
SIREN          FAIR      57  17  21 CALM      30.35S
CUMBERLAND     FAIR      50  14  23 CALM      30.35F
RICE LAKE      FAIR      55  17  23 W5        30.36F
CHETEK         FAIR      56  20  24 CALM      30.35F
LADYSMITH      FAIR      57  24  27 S3        30.36S
EAU CLAIRE     NOT AVBL
MENOMONIE      FAIR      60  29  30 W5        30.33F
NEW RICHMOND   FAIR      57  15  19 CALM      30.34F
OSCEOLA        FAIR      57  21  24 CALM      30.37F
$$

WIZ003>005-009-010-017-018-212300-
NORTH CENTRAL WISCONSIN

CITY           SKY/WX    TMP DP  RH WIND       PRES   REMARKS
MANITOWISH WTR FAIR      53  13  20 SE6       30.32F
ARBOR VITAE    FAIR      57  11  16 SW6       30.32F
WOODRUFF       FAIR      57  11  16 SW6       30.32F
RHINELANDER    FAIR      55  18  23 VRB6      30.33F
EAGLE RIVER    FAIR      55   5  13 SW3       30.32S
LAND O LAKES   FAIR      57   7  14 CALM      30.33S
PHILLIPS       FAIR      55  13  19 SW6       30.33S
TOMAHAWK       FAIR      55  14  19 CALM      30.34F
MEDFORD        FAIR      52  27  38 S5        30.35S
MERRILL          N/A     55  28  35 SW9       30.36S
$$

WIZ029-030-035-036-043>047-212300-
CENTRAL WISCONSIN

CITY           SKY/WX    TMP DP  RH WIND       PRES   REMARKS
WAUSAU         FAIR      55  27  34 W10       30.34S
MOSINEE        MOSUNNY   54  25  32 W6        30.37S
MARSHFIELD     FAIR      58  25  28 CALM      30.34S
STEVENS POINT  FAIR      54  24  31 W6        30.36S
WAUPACA        FAIR      59  20  22 SE3       30.37S
WAUTOMA        FAIR      57  25  29 CALM      30.36F
WISC RAPIDS    FAIR      54  26  34 S12       30.36S
CAMP DOUGLAS   FAIR      55  28  36 CALM      30.35F
$$

WIZ011>013-019>022-031-037>040-048>050-212300-
NORTHEAST WISCONSIN

CITY           SKY/WX    TMP DP  RH WIND       PRES   REMARKS
ANTIGO         FAIR      53  24  32 CALM      30.35F
SHAWANO        FAIR      59  21  22 SW7       30.35F
OCONTO         FAIR      55  22  27 SW7       30.36F
STURGEON BAY   FAIR      54  20  26 S7        30.38S
GREEN BAY      FAIR      50  22  33 S9        30.38F
MANITOWOC      FAIR      49  28  44 SE7       30.40S
APPLETON       MOSUNNY   55  18  22 SE6       30.36F
CLINTONVILLE   FAIR      54  18  24 S9        30.36S
OSHKOSH        FAIR      52  31  44 SE7       30.37F
$$

WIZ032>034-041-042-053>061-212300-
SOUTHWEST WISCONSIN

CITY           SKY/WX    TMP DP  RH WIND       PRES   REMARKS
LA CROSSE      CLOUDY    59  28  30 W6        30.34F
SPARTA         CLOUDY    55  30  37 CALM      30.36F
VIROQUA        CLOUDY    54  38  53 CALM      30.34S
BOSCOBEL       FAIR      59  34  39 CALM      30.35F
PRAIRIE DU CHI FAIR      56  31  39 E7        30.34F
PLATTEVILLE    CLOUDY    56  32  40 E6        30.35S
$$

WIZ056-057-062-063-064-067-068-212300-
SOUTH CENTRAL WISCONSIN

CITY           SKY/WX    TMP DP  RH WIND       PRES   REMARKS
REEDSBURG      FAIR      55  32  42 NE6       30.35F
BARABOO/DELLS  CLOUDY    54  27  35 CALM      30.36F
LONE ROCK      NOT AVBL
MINERAL POINT  FAIR      55  28  35 E6        30.34F
MADISON        PTSUNNY   56  32  40 VRB5      30.35F
MIDDLETON      CLOUDY    56  31  37 E6        30.36F
WATERTOWN      CLOUDY    52  31  45 CALM      30.37F
MONROE         FAIR      54  32  43 NE6       30.34F
JANESVILLE     CLOUDY    55  30  38 E6        30.35F
$$

WIZ051-052-058>065-066-070>072-212300-
SOUTHEAST WISCONSIN

CITY           SKY/WX    TMP DP  RH WIND       PRES   REMARKS
MILWAUKEE      PTSUNNY   53  21  28 SE7       30.39F
WAUKESHA       CLOUDY    52  27  37 W3        30.39F
MILWAUKEE/TIMM PTSUNNY   54  10  17 CALM      30.38F
RACINE         PTSUNNY   49  18  29 SE5       30.40F
BURLINGTON     FAIR      55  26  33 N5        30.38F
KENOSHA        FAIR      52  23  32 E9        30.37F
FOND DU LAC    FAIR      52  27  38 S5        30.37F
SHEBOYGAN      FAIR      57  18  21 VRB3      30.38S
WEST BEND      CLOUDY    54  23  30 W3        30.38F
JUNEAU         CLOUDY    49  33  52 CALM      30.40F
$$

LSZ147-162-212300-
LAKE SUPERIOR

STATION/POSITION TIME  TEMP    WIND        PRES    WAVE
                       AIR SEA DIR/SP/G            HT/PER
                 (UTC) (F)     (DEG/KT/KT) (MB)    (FT/S)
DEVILS ISLAND    2100   48     290/  5/  8 1028.3F
SAXON HARBOR     2130   45     320/  2/  3 1027.1F
$$

LMZ867-665-643>646-212300-
LAKE MICHIGAN

STATION/POSITION TIME  TEMP    WIND        PRES    WAVE
                       AIR SEA DIR/SP/G            HT/PER
                 (UTC) (F)     (DEG/KT/KT) (MB)    (FT/S)
NORTHPORT PIER   2140   51                 1027.8F
KEWAUNEE LAKESHO 2130   41     170/  9/ 13 1028.2F
SHEBOYGAN LAKESH 2000   43     170/ 16/ 16 1030.0F
PORT WASHINGTON  2140   45     180/  2/  3 1030.1S
MILWAUKEE LAKESH 2130   42      70/  2/  2   N/A
KENOSHA   LAKESH 2100   43                 1029.5
$$

TC  - TEMPERATURE IN CELSIUS
VSB - VISIBILITY IN STATUTE MILES
WCI - WIND CHILL INDEX
HX  - HEAT INDEX





USA.gov is the U.S. government's official web portal to all federal, state and local government web resources and services.